P/2011 Q3 ( McNaught )

Japanese version
Home page
Updated on February 10, 2013

---------------------------------------------------------------------

* Profile

Discovery Date August 29, 2011
Magnitude 18.5 mag
Discoverer Robert H. McNaught (Siding Spring)

* Pictures

* Orbital Elements

Epoch 2011 Aug. 27.0 TT = JDT 2455800.5
T 2011 Aug. 14.29611 TT                                 MPC
q   2.3678372            (2000.0)            P               Q
n   0.08676972     Peri.  310.22640     +0.96587634     +0.25172938
a   5.0530924      Node    35.31689     -0.19384066     +0.85865115
e   0.5314083      Incl.    6.05231     -0.17178097     +0.44648686
P  11.4
From 135 observations 2011 Aug. 29-Dec. 24, mean residual 0".4.

* Magnitudes Graph

        m1 = 13.5 + 5 log d + 10.0 log r

---------------------------------------------------------------------

The orbital elements are published on M.P.E.C. 2011-Y66.
The magnitudes graphs are made with Comet for Windows.

---------------------------------------------------------------------

Copyright(C) Seiichi Yoshida (comet@aerith.net). All rights reserved.